Location: M�nsingen
(48.4098°N, 9.4963°E)
Time: 21:58:56
(UTC+01:00)

ISS - Visible Passes

Search period start: 23 January 2021 00:00
Search period end: 02 February 2021 00:00
Orbit: 418 x 421 km, 51.6° (Epoch: 24 January)

Date Brightness Start Highest point End Pass type
(mag) Time Alt. Az. Time Alt. Az. Time Alt. Az.
23 Jan -3.1 17:55:46 10° SW 17:59:01 44° SSE 18:01:49 13° ENE visible
23 Jan -2.3 19:32:28 10° W 19:34:48 38° WNW 19:34:48 38° WNW visible
24 Jan -3.7 18:45:01 10° WSW 18:48:24 70° NNW 18:49:25 41° NE visible
24 Jan -0.2 20:22:13 10° WNW 20:22:24 11° WNW 20:22:24 11° WNW visible
25 Jan -3.8 17:57:38 10° WSW 18:01:01 90° NNW 18:04:00 13° ENE visible
25 Jan -2.2 19:34:45 10° WNW 19:36:58 33° NW 19:36:58 33° NW visible
26 Jan -3.3 18:47:17 10° W 18:50:35 49° N 18:51:32 36° NE visible
26 Jan -0.2 20:24:22 10° WNW 20:24:30 11° WNW 20:24:30 11° WNW visible
27 Jan -3.4 17:59:46 10° W 18:03:07 56° NNW 18:06:05 13° ENE visible
27 Jan -2.1 19:36:57 10° WNW 19:39:03 32° NW 19:39:03 32° NW visible
28 Jan -3.2 18:49:29 10° WNW 18:52:46 46° N 18:53:37 37° NE visible
28 Jan -0.3 20:26:24 10° WNW 20:26:35 11° WNW 20:26:35 11° WNW visible
29 Jan -3.2 18:01:59 10° WNW 18:05:16 46° N 18:08:11 12° ENE visible
29 Jan -2.3 19:38:58 10° WNW 19:41:09 36° WNW 19:41:09 36° WNW visible
30 Jan -3.6 18:51:32 10° WNW 18:54:53 58° NNE 18:55:46 41° ENE visible
30 Jan -0.3 20:28:26 10° WNW 20:28:44 12° WNW 20:28:44 12° WNW visible
31 Jan -3.4 18:04:04 10° WNW 18:07:23 50° N 18:10:25 12° E visible
31 Jan -2.5 19:40:56 10° WNW 19:43:24 42° W 19:43:24 42° W visible
01 Feb -3.8 18:53:28 10° WNW 18:56:52 87° SSW 18:58:08 36° ESE visible
01 Feb -0.3 20:30:49 10° W 20:31:07 11° W 20:31:07 11° W visible
